SL-4 R/B (43757 NORAD) Tracking and Keplerian Element Data

This shows tracking and keplerian element data for the satellite.

Feedback or suggestion? Click here.




ElementValue
Catalog43757
NameSL-4 R/B
Epoch Orbit70
Epoch Day341.76405812
Epoch Year2018
RAAN231.2411
Inclination51.6215
Eccentricity0.0005943
Argument of Perigee138.5105
Mean Anonmoly221.7315
Mean Motion16.49337834
Decay Rate0.17999695
L11 43757U 18098B 18341.76405812 .17999695 12584-4 22332-3 0 9996
L22 43757 51.6215 231.2411 0005943 138.5105 221.7315 16.49337834 702

Live tracking and technical data element details for SL-4 R/B (NORAD 43757). SL-4 R/B can be tracked NOW for your location showing map with azimuth and elevation plus other details from your city location.

Track the satellite on the map from your city or location and see movement details for azimuth, elevation, latitude, longitude, range, height, and movement on the map or in text.







IsCatalogInMostPopularTable: catalog: 43757, numindb: 4
Update: records affected: 1



GetName: 43757 SL-4 R/B

Hit Count: updated at: Tue, 11 Dec 2018 03:20:17 GMT